Location: Cosy Dell
(34.2789°N, 117.4537°W)
Time: 00:51:05
(UTC+00:00)

Atlas Centaur 2 - Pass Details

Date: 14 July 2020
Orbit: 459 x 1310 km, 30.4° (Epoch: 12 August)

Event Time Altitude Azimuth Distance (km) Brightness Sun altitude
Rises 04:31:41 0° 264° (W) 2,828 5.6 -16.0°
Reaches altitude 10° 04:34:20 10° 246° (WSW) 2,053 4.5 -16.4°
Maximum altitude 04:37:47 20° 200° (SSW) 1,669 3.5 -17.0°
Enters shadow 04:39:19 18° 178° (S) 1,843 3.6 -17.2°
